Helsinki, Finland

4:27 AM EEST on July 27, 2017 (GMT +0300)
Vantaa

Weather History for EFHK - December, 2012

Change the Weather History Date:

Wednesday, December 19, 2012

  Actual Average Record
Temperature  
Mean Temperature 18 °F -  
Max Temperature 20 °F 29 °F 45 °F (2015)
Min Temperature 15 °F 19 °F 5 °F (1996)
Degree Days  
Heating Degree Days 48    
Moisture  
Dew Point 16 °F    
Average Humidity 91    
Maximum Humidity 100    
Minimum Humidity 83    
Precipitation  
Precipitation 0.00 in 0.06 in - ()
Sea Level Pressure  
Sea Level Pressure 30.49 in    
Wind  
Wind Speed 10 mph ()    
Max Wind Speed 16 mph    
Max Gust Speed -    
Visibility 4.9 miles    
Events Fog , Snow    
Averages and records for this station are not official NWS values.
T = Trace of Precipitation, MM = Missing Value Source: Averaged Metar Reports

Daily Weather History Graph

Daily Weather History Graph

Search for Another Location

Airport or City:

Trip Planner

Search our weather history database for the weather conditions in past years. The results will help you decide how hot, cold, wet, or windy it might be!

Date:

Astronomy

Dec. 19, 2012 Rise Set
Actual Time 9:24 AM EET 3:10 PM EET
Civil Twilight 8:25 AM EET 4:09 PM EET
Nautical Twilight 7:27 AM EET 5:07 PM EET
Astronomical Twilight 6:35 AM EET 5:59 PM EET
Moon 11:38 AM EET (12/19) No Moon Set
Length of Visible Light 7h 44m
Length of Day
5h 46m
Waxing Crescent, 42% of the Moon is Illuminated
Dec 19
Waxing Crescent
Dec 20
First Quarter
Dec 28
Full
Jan 5
Last Quarter
Jan 11
New

Hourly Weather History & Observations

Time (EET) Temp. Windchill Dew Point Humidity Pressure Visibility Wind Dir Wind Speed Gust Speed Precip Events Conditions
12:20 AM 19.4 °F 6.6 °F 15.8 °F 86% 30.45 in 6.2 mi ESE 12.7 mph - N/A Snow Low Drifting Snow
12:50 AM 19.4 °F 7.2 °F 17.6 °F 93% 30.45 in 6.2 mi ESE 11.5 mph - N/A Snow Low Drifting Snow
1:20 AM 19.4 °F 6.6 °F 15.8 °F 86% 30.45 in 6.2 mi ESE 12.7 mph - N/A Snow Low Drifting Snow
1:50 AM 19.4 °F 7.9 °F 15.8 °F 86% 30.45 in 6.2 mi ESE 10.4 mph - N/A Snow Low Drifting Snow
2:00 AM 19 °F - 16 °F 84% 30.48 in 12 mi ESE 15.7 mph - - Snow Low Drifting Snow
2:20 AM 19.4 °F 6.6 °F 15.8 °F 86% 30.45 in 6.2 mi ESE 12.7 mph - N/A Snow Low Drifting Snow
2:50 AM 19.4 °F 6.6 °F 15.8 °F 86% 30.45 in 6.2 mi ESE 12.7 mph - N/A Snow Low Drifting Snow
3:20 AM 17.6 °F 6.4 °F 15.8 °F 93% 30.45 in 6.2 mi East 9.2 mph - N/A   Overcast
3:50 AM 17.6 °F 5.7 °F 15.8 °F 93% 30.45 in 6.2 mi East 10.4 mph - N/A   Overcast
4:20 AM 17.6 °F 5.7 °F 15.8 °F 93% 30.45 in 6.2 mi East 10.4 mph - N/A   Overcast
4:50 AM 17.6 °F 6.4 °F 15.8 °F 93% 30.45 in 5.6 mi ESE 9.2 mph - N/A   Overcast
5:20 AM 17.6 °F 4.3 °F 15.8 °F 93% 30.45 in 5.6 mi ESE 12.7 mph - N/A   Overcast
5:50 AM 19.4 °F 7.9 °F 15.8 °F 86% 30.48 in 6.2 mi ESE 10.4 mph - N/A   Mostly Cloudy
6:20 AM 19.4 °F 7.9 °F 15.8 °F 86% 30.48 in 6.2 mi ESE 10.4 mph - N/A   Mostly Cloudy
6:50 AM 19.4 °F 7.2 °F 17.6 °F 93% 30.48 in 6.2 mi ESE 11.5 mph - N/A   Mostly Cloudy
7:20 AM 19.4 °F 7.9 °F 17.6 °F 93% 30.48 in 5.6 mi ESE 10.4 mph - N/A   Mostly Cloudy
7:50 AM 19.4 °F 6.6 °F 17.6 °F 93% 30.48 in 5.6 mi ESE 12.7 mph - N/A Snow Light Snow Grains
8:00 AM 19 °F - 18 °F 92% 30.51 in 6 mi ESE 13.4 mph - - Snow Snow Grains
8:20 AM 19.4 °F 7.9 °F 17.6 °F 93% 30.48 in 5.0 mi East 10.4 mph - N/A Snow Light Snow Grains
8:50 AM 19.4 °F 6.6 °F 17.6 °F 93% 30.48 in 5.0 mi East 12.7 mph - N/A Snow Light Snow Grains
9:20 AM 19.4 °F 6.6 °F 15.8 °F 86% 30.48 in 6.2 mi ESE 12.7 mph - N/A Snow Light Snow Grains
9:50 AM 17.6 °F 5.7 °F 15.8 °F 93% 30.48 in 6.2 mi ESE 10.4 mph - N/A Snow Light Snow Grains
10:20 AM 17.6 °F 5.7 °F 15.8 °F 93% 30.51 in 6.2 mi East 10.4 mph - N/A Snow Light Snow Grains
10:50 AM 17.6 °F 5.0 °F 15.8 °F 93% 30.51 in 6.2 mi East 11.5 mph - N/A Snow Light Snow Grains
11:20 AM 17.6 °F 5.7 °F 15.8 °F 93% 30.51 in 6.2 mi East 10.4 mph - N/A Snow Light Snow Grains
11:50 AM 19.4 °F 7.9 °F 15.8 °F 86% 30.51 in 6.2 mi East 10.4 mph - N/A Snow Light Snow Grains
12:20 PM 19.4 °F 8.6 °F 15.8 °F 86% 30.51 in 6.2 mi East 9.2 mph - N/A Snow Light Snow Grains
12:50 PM 19.4 °F 7.9 °F 15.8 °F 86% 30.48 in 6.2 mi East 10.4 mph - N/A Snow Light Snow Grains
1:20 PM 19.4 °F 7.9 °F 15.8 °F 86% 30.48 in 5.6 mi East 10.4 mph - N/A Snow Light Snow Grains
1:50 PM 19.4 °F 8.6 °F 17.6 °F 93% 30.48 in 5.6 mi East 9.2 mph - N/A Snow Light Snow Grains
2:00 PM 19 °F - 16 °F 83% 30.53 in 6 mi East 11.2 mph - - Snow Snow Grains
2:20 PM 19.4 °F 9.5 °F 17.6 °F 93% 30.48 in 3.7 mi East 8.1 mph - N/A Snow Light Snow Grains
2:50 PM 21.2 °F 10.9 °F 17.6 °F 86% 30.48 in 3.7 mi East 9.2 mph - N/A Snow Light Snow Grains
3:20 PM 21.2 °F 11.7 °F 17.6 °F 86% 30.48 in 5.0 mi East 8.1 mph - N/A Snow Light Snow Grains
3:50 PM 21.2 °F 11.7 °F 17.6 °F 86% 30.51 in 6.2 mi East 8.1 mph - N/A Snow Light Snow Grains
4:20 PM 21.2 °F 10.9 °F 17.6 °F 86% 30.48 in 6.2 mi East 9.2 mph - N/A Snow Light Snow Grains
4:50 PM 21.2 °F 9.5 °F 17.6 °F 86% 30.51 in 6.2 mi East 11.5 mph - N/A Snow Light Snow Grains
5:20 PM 21.2 °F 10.1 °F 17.6 °F 86% 30.51 in 6.2 mi East 10.4 mph - N/A Snow Light Snow Grains
5:50 PM 21.2 °F 8.9 °F 19.4 °F 93% 30.51 in 2.5 mi East 12.7 mph - N/A Snow Light Snow Grains
6:20 PM 19.4 °F 6.0 °F 17.6 °F 93% 30.51 in 1.1 mi ESE 13.8 mph - N/A Snow Light Snow Grains
6:50 PM 17.6 °F 4.3 °F 17.6 °F 100% 30.51 in 0.6 mi ESE 12.7 mph - N/A Fog , Snow Light Snow Grains
7:20 PM 17.6 °F 3.7 °F 15.8 °F 93% 30.51 in 0.7 mi ESE 13.8 mph - N/A Snow Light Snow Grains
7:50 PM 17.6 °F 5.0 °F 15.8 °F 93% 30.51 in 0.4 mi ESE 11.5 mph - N/A Fog , Snow Light Snow Grains
8:00 PM 18 °F - 16 °F 89% 30.55 in 0 mi SE 15.7 mph - - Snow Snow Grains
8:20 PM 17.6 °F 5.7 °F 15.8 °F 93% 30.51 in 0.7 mi ESE 10.4 mph - N/A Snow Light Snow Grains
8:50 PM 17.6 °F 5.0 °F 15.8 °F 93% 30.51 in 1.2 mi ESE 11.5 mph - N/A Snow Light Snow Grains
9:20 PM 15.8 °F 4.2 °F 15.8 °F 100% 30.51 in 1.9 mi ESE 9.2 mph - N/A Snow Light Snow Grains
9:50 PM 15.8 °F 5.1 °F 15.8 °F 100% 30.51 in 3.1 mi ESE 8.1 mph - N/A Snow Light Snow Grains
10:20 PM 17.6 °F 8.2 °F 15.8 °F 93% 30.51 in 3.1 mi ESE 6.9 mph - N/A Snow Light Snow Grains
10:50 PM 17.6 °F 6.4 °F 15.8 °F 93% 30.51 in 3.7 mi East 9.2 mph - N/A Snow Light Snow Grains
11:20 PM 17.6 °F 5.0 °F 15.8 °F 93% 30.51 in 4.3 mi ESE 11.5 mph - N/A Snow Light Snow Grains
11:50 PM 15.8 °F 4.2 °F 14.0 °F 93% 30.54 in 4.3 mi ESE 9.2 mph - N/A Snow Light Snow Grains